Вернуться в каталог

STARLINK-3112

АктивенСвязьVLEO
NORAD 49421·PAYLOAD·🇺🇸 United States

Запущен Nov 13, 2021 с Cape Canaveral Space Force Station

Loading…

Ближайшие Пролёты (ближайшие 24 часа)

TLE

СвежийSource: CelesTrak SupGP

Эпоха: Sep 15, 2026, 02:10 UTC

1 49421C 21104P   26258.09076389 -.00013550  00000+0 -43580-3 0  2589
2 49421  53.1574  86.0021 0001235  83.2327 214.4988 15.31703279    15

Отслеживайте STARLINK-3112 в реальном времени с AllMySat

Download on the App Store